Location: ????
(30.1475°N, 31.1342°E)
Time: 13:46:44
(UTC+00:00)

PSLV R/B - Pass Details

Date: 27 September 2022
Orbit: 589 x 625 km, 98.0° (Epoch: 27 November)

Event Time Altitude Azimuth Distance (km) Brightness Sun altitude
Rises 02:56:02 0° 4° (N) 2,903 7.1 -11.7°
Reaches altitude 10° 02:58:17 10° 358° (N) 1,989 6.2 -11.2°
Maximum altitude 03:02:25 46° 286° (WNW) 825 3.8 -10.3°
Drops below altitude 10° 03:06:30 10° 212° (SSW) 1,958 5.8 -9.5°
Sets 03:08:43 0° 206° (SSW) 2,852 6.7 -9.0°
